Weather History for KJVW - February, 2014

Change the Weather History Date:

Wednesday, February 19, 2014

  Actual Average Record
Temperature  
Mean Temperature 64 °F -  
Max Temperature 77 °F - - ()
Min Temperature 51 °F - - ()
Degree Days  
Heating Degree Days 1    
Growing Degree Days 14 (Base 50)    
Moisture  
Dew Point 58 °F    
Average Humidity 79    
Maximum Humidity 100    
Minimum Humidity 44    
Precipitation  
Precipitation 0.00 in - - ()
Sea Level Pressure  
Sea Level Pressure 29.99 in    
Wind  
Wind Speed 6 mph (South)    
Max Wind Speed 13 mph    
Max Gust Speed 21 mph    
Visibility 7 miles    
Events Fog    
T = Trace of Precipitation, MM = Missing Value Source: NWS Daily Summary

Daily Weather History Graph

Daily Weather History Graph

Search for Another Location

Airport or City:

Trip Planner

Search our weather history database for the weather conditions in past years. The results will help you decide how hot, cold, wet, or windy it might be!

Date:

Astronomy

Feb. 19, 2014 Rise Set
Actual Time 6:40 AM CST 5:51 PM CST
Civil Twilight 6:15 AM CST 6:16 PM CST
Nautical Twilight 5:46 AM CST 6:44 PM CST
Astronomical Twilight 5:18 AM CST 7:13 PM CST
Moon 10:25 PM CST (2/19) 9:03 AM CST (2/19)
Length of Visible Light 12h 00m
Length of Day
11h 11m
Waning Gibbous, 79% of the Moon is Illuminated
Feb 19
Waning Gibbous
Feb 22
Last Quarter
Mar 1
New
Mar 8
First Quarter
Mar 16
Full

Hourly Weather History & Observations

Time (CST) Temp. Dew Point Humidity Pressure Visibility Wind Dir Wind Speed Gust Speed Precip Events Conditions
12:15 AM 62.6 °F 59.0 °F 88% 30.02 in 10.0 mi South 9.2 mph - N/A   Clear
12:35 AM 62.6 °F 59.0 °F 88% 30.02 in 10.0 mi South 8.1 mph - N/A   Clear
12:55 AM 62.6 °F 59.0 °F 88% 30.03 in 10.0 mi South 4.6 mph - N/A   Clear
1:15 AM 62.6 °F 59.0 °F 88% 30.03 in 10.0 mi South 4.6 mph - N/A   Clear
1:35 AM 59.0 °F 59.0 °F 100% 30.03 in 10.0 mi South 4.6 mph - N/A   Clear
1:55 AM 59.0 °F 59.0 °F 100% 30.03 in 10.0 mi SSW 3.5 mph - N/A   Partly Cloudy
2:15 AM 59.0 °F 59.0 °F 100% 30.04 in 8.0 mi SSW 3.5 mph - N/A   Partly Cloudy
2:35 AM 59.0 °F 59.0 °F 100% 30.04 in 8.0 mi South 5.8 mph - N/A   Scattered Clouds
2:55 AM 59.0 °F 59.0 °F 100% 30.04 in 7.0 mi Calm Calm - N/A   Scattered Clouds
3:15 AM 55.4 °F 55.4 °F 100% 30.03 in 0.8 mi ESE 3.5 mph - N/A   Mostly Cloudy
3:35 AM 53.6 °F 53.6 °F 100% 30.03 in 0.2 mi Calm Calm - N/A Fog Fog
3:55 AM 53.6 °F 53.6 °F 100% 30.04 in 0.5 mi Calm Calm - N/A Fog Fog
4:15 AM 53.6 °F 53.6 °F 100% 30.04 in 0.2 mi Calm Calm - N/A Fog Fog
4:35 AM 53.6 °F 53.6 °F 100% 30.04 in 0.2 mi Calm Calm - N/A Fog Fog
4:55 AM 53.6 °F 53.6 °F 100% 30.04 in 0.2 mi Calm Calm - N/A Fog Fog
5:15 AM 51.8 °F 51.8 °F 100% 30.04 in 1.2 mi Calm Calm - N/A   Mostly Cloudy
5:35 AM 51.8 °F 51.8 °F 100% 30.03 in 0.8 mi SSE 3.5 mph - N/A   Mostly Cloudy
5:55 AM 57.2 °F 57.2 °F 100% 30.04 in 0.8 mi North - - N/A   Mostly Cloudy
6:15 AM 59.0 °F 59.0 °F 100% 30.04 in 4.0 mi SSE 3.5 mph - N/A   Clear
6:35 AM 53.6 °F 53.6 °F 100% 30.04 in 0.5 mi Calm Calm - N/A Fog Fog
6:55 AM 55.4 °F 55.4 °F 100% 30.05 in 1.2 mi Calm Calm - N/A   Mostly Cloudy
7:15 AM 55.4 °F 55.4 °F 100% 30.06 in 1.8 mi Calm Calm - N/A   Overcast
7:35 AM 59.0 °F 59.0 °F 100% 30.06 in 2.0 mi SSW 4.6 mph - N/A   Overcast
7:55 AM 60.8 °F 60.8 °F 100% 30.06 in 2.5 mi South 4.6 mph - N/A   Mostly Cloudy
8:15 AM 62.6 °F 62.6 °F 100% 30.06 in 2.5 mi SSW 6.9 mph - N/A   Overcast
8:35 AM 62.6 °F 62.6 °F 100% 30.06 in 3.0 mi SSW 5.8 mph - N/A   Mostly Cloudy
8:55 AM 62.6 °F 62.6 °F 100% 30.07 in 3.0 mi SSW 5.8 mph - N/A   Mostly Cloudy
9:15 AM 64.4 °F 64.4 °F 100% 30.07 in 5.0 mi SW 5.8 mph - N/A   Mostly Cloudy
9:35 AM 64.4 °F 62.6 °F 94% 30.07 in 8.0 mi SW 10.4 mph - N/A   Overcast
9:55 AM 66.2 °F 62.6 °F 88% 30.07 in 8.0 mi SW 8.1 mph - N/A   Mostly Cloudy
10:15 AM 66.2 °F 62.6 °F 88% 30.07 in 10.0 mi SW 5.8 mph - N/A   Mostly Cloudy
10:35 AM 68.0 °F 62.6 °F 83% 30.06 in 8.0 mi SSW 6.9 mph - N/A   Partly Cloudy
10:55 AM 69.8 °F 60.8 °F 73% 30.05 in 8.0 mi South 10.4 mph 17.3 mph N/A   Clear
11:15 AM 71.6 °F 60.8 °F 69% 30.04 in 9.0 mi SW 4.6 mph - N/A   Partly Cloudy
11:35 AM 73.4 °F 59.0 °F 61% 30.03 in 10.0 mi SW 6.9 mph - N/A   Scattered Clouds
11:55 AM 73.4 °F 59.0 °F 61% 30.02 in 9.0 mi South 6.9 mph - N/A   Mostly Cloudy
12:15 PM 73.4 °F 59.0 °F 61% 30.01 in 9.0 mi SSW 6.9 mph - N/A   Scattered Clouds
12:35 PM 73.4 °F 59.0 °F 61% 30.00 in 9.0 mi SSW 6.9 mph - N/A   Partly Cloudy
12:55 PM 75.2 °F 59.0 °F 57% 29.98 in 9.0 mi SSW 5.8 mph - N/A   Partly Cloudy
1:15 PM 75.2 °F 57.2 °F 53% 29.96 in 9.0 mi South 8.1 mph - N/A   Partly Cloudy
1:35 PM 75.2 °F 57.2 °F 53% 29.96 in 9.0 mi SSW 10.4 mph - N/A   Scattered Clouds
1:55 PM 75.2 °F 57.2 °F 53% 29.95 in 9.0 mi SSE 5.8 mph - N/A   Scattered Clouds
2:15 PM 77.0 °F 57.2 °F 50% 29.94 in 8.0 mi SSW 11.5 mph 18.4 mph N/A   Partly Cloudy
2:35 PM 77.0 °F 57.2 °F 50% 29.93 in 9.0 mi South 4.6 mph - N/A   Scattered Clouds
2:55 PM 77.0 °F 55.4 °F 47% 29.93 in 8.0 mi SSW 8.1 mph 16.1 mph N/A   Partly Cloudy
3:15 PM 77.0 °F 55.4 °F 47% 29.93 in 8.0 mi South 12.7 mph 20.7 mph N/A   Clear
3:35 PM 77.0 °F 55.4 °F 47% 29.92 in 8.0 mi South 6.9 mph - N/A   Partly Cloudy
3:55 PM 77.0 °F 53.6 °F 44% 29.93 in 7.0 mi SSW 6.9 mph - N/A   Partly Cloudy
4:15 PM 77.0 °F 53.6 °F 44% 29.93 in 8.0 mi SSW 9.2 mph - N/A   Clear
4:35 PM 75.2 °F 53.6 °F 47% 29.92 in 9.0 mi South 8.1 mph - N/A   Clear
4:55 PM 77.0 °F 53.6 °F 44% 29.91 in 8.0 mi SSW 8.1 mph - N/A   Clear
5:15 PM 75.2 °F 53.6 °F 47% 29.92 in 7.0 mi SSW 5.8 mph - N/A   Clear
5:35 PM 73.4 °F 53.6 °F 50% 29.92 in 8.0 mi South 5.8 mph - N/A   Clear
5:55 PM 71.6 °F 55.4 °F 57% 29.92 in 10.0 mi South 6.9 mph - N/A   Clear
6:15 PM 71.6 °F 55.4 °F 57% 29.92 in 9.0 mi SSW 3.5 mph - N/A   Clear
6:35 PM 69.8 °F 55.4 °F 60% 29.92 in 10.0 mi SSE 3.5 mph - N/A   Clear
6:55 PM 66.2 °F 53.6 °F 64% 29.91 in 10.0 mi SSE 4.6 mph - N/A   Clear
7:15 PM 66.2 °F 55.4 °F 68% 29.91 in 10.0 mi ESE 3.5 mph - N/A   Clear
7:35 PM 62.6 °F 55.4 °F 77% 29.92 in 10.0 mi Calm Calm - N/A   Clear
7:55 PM 59.0 °F 53.6 °F 82% 29.92 in 10.0 mi ESE 4.6 mph - N/A   Clear
8:15 PM 59.0 °F 55.4 °F 88% 29.92 in 10.0 mi ESE 3.5 mph - N/A   Clear
8:35 PM 59.0 °F 55.4 °F 88% 29.92 in 10.0 mi SE 4.6 mph - N/A   Clear
8:55 PM 66.2 °F 57.2 °F 73% 29.92 in 10.0 mi SSE 9.2 mph - N/A   Clear
9:15 PM 66.2 °F 59.0 °F 78% 29.92 in 10.0 mi SSE 9.2 mph - N/A   Clear
9:35 PM 66.2 °F 59.0 °F 78% 29.92 in 10.0 mi SSE 9.2 mph - N/A   Clear
10:35 PM 66.2 °F 62.6 °F 88% 29.91 in 10.0 mi SSE 10.4 mph 17.3 mph N/A   Clear
10:55 PM 66.2 °F 62.6 °F 88% 29.91 in 10.0 mi SSE 10.4 mph - N/A   Clear
11:15 PM 66.2 °F 62.6 °F 88% 29.91 in 10.0 mi SSE 9.2 mph - N/A   Clear
11:35 PM 66.2 °F 62.6 °F 88% 29.91 in 10.0 mi SSE 10.4 mph 18.4 mph N/A   Clear
11:55 PM 66.2 °F 62.6 °F 88% 29.91 in 10.0 mi SSE 10.4 mph - N/A   Scattered Clouds